Погода в Тихорецке

Россия / Краснодарский край     45°51′16″N   40°07′33″E
темп.,
°C
ветер,
м/с
пор.,
м/с
влажн.,
%
обл.,
%
осадки,
мм/ч
давл.,
гПа
погр.,
м
18 мая, вт
вт1800:00+16зюз4995100 1.6 1009390
03:00+14юз389756 1.6 1010317
06:00+14зюз399582 0.0 1011397
09:00+17з467893 0.0 1011774
12:00+21зюз576313 0.0 10111463
15:00+21зюз46604 0.1 10111382
18:00+21ююз34720 0.1 1010228
21:00+16ююв358882 0.2 101065
19 мая, ср
ср1900:00+15ююв3488100 0.0 100955
03:00+15ююз2496100 1.9 1009126
06:00+14юз51097100 5.9 1010520
09:00+12з5996100 10.3 1011440
12:00+16юз7108299 1.3 10131165
15:00+18юз914764 2.3 10131480
18:00+15юз8148091 0.5 10141182
21:00+14юз715785 0.5 1015928
20 мая, чт
чт2000:00+13юз716775 0.0 1015748
03:00+13юз6157779 0.0 1015514
06:00+11ю378911 0.0 1016208
09:00+16ю347169 0.0 1016448
12:00+20ююв2353100 0.0 10151119
15:00+22в2250100 0.0 10141153
18:00+20всв3671100 0.0 1014213
21:00+16всв5137214 0.0 1013228
21 мая, пт
пт2100:00+15в410865 0.0 1012180
03:00+14в511815 0.0 1011189
06:00+14в5118263 0.0 1011190
09:00+20вюв69685 0.0 1010302
12:00+26в68610 0.0 1009519
15:00+27в711675 0.0 1009761
18:00+25вюв613745 0.0 1008596
21:00+21вюв614720 0.0 1008342
22 мая, сб
сб2200:00+18в48775 0.0 1008121
03:00+16в51077100 0.0 1008158
06:00+15в51084100 0.0 1007196
09:00+21в347388 0.0 1008316
12:00+25вюв4568100 0.0 1008574
15:00+28св2360100 0.0 1008871
18:00+26вюв61277100 0.0 1007418
21:00+22вюв2281100 0.0 100711